Time,TemperatureF,DewpointF,PressureIn,WindDirection,WindDirectionDegrees,WindSpeedMPH,WindSpeedGustMPH,Humidity,HourlyPrecipIn,Conditions,Clouds,dailyrainin,SolarRadiationWatts/m^2,SoftwareType,DateUTC
2013-01-12 00:00:00,42.5,31.9,29.85,NW,306,1.0,9.0,66,0.00,,,0.00,0,Wunderground v.1.15,2013-01-12 06:00:00,
2013-01-12 00:05:00,42.0,31.5,29.85,WNW,296,1.0,9.0,66,0.00,,,0.00,0,Wunderground v.1.15,2013-01-12 06:05:00,
2013-01-12 00:15:00,41.1,30.6,29.86,WNW,296,1.0,1.0,66,0.00,,,0.00,0,Wunderground v.1.15,2013-01-12 06:15:00,
2013-01-12 00:20:00,40.7,31.0,29.86,WNW,288,1.0,2.0,68,0.00,,,0.00,0,Wunderground v.1.15,2013-01-12 06:20:00,
2013-01-12 00:25:00,40.3,30.9,29.86,WNW,290,1.0,2.0,69,0.00,,,0.00,0,Wunderground v.1.15,2013-01-12 06:25:00,
2013-01-12 00:35:00,39.7,31.1,29.87,West,281,0.0,1.0,71,0.00,,,0.00,0,Wunderground v.1.15,2013-01-12 06:35:00,
2013-01-12 00:45:00,39.2,32.3,29.87,WNW,293,1.0,5.0,76,0.00,,,0.00,0,Wunderground v.1.15,2013-01-12 06:45:00,
2013-01-12 00:55:00,38.7,30.8,29.88,WNW,298,0.0,5.0,73,0.00,,,0.00,0,Wunderground v.1.15,2013-01-12 06:55:00,
2013-01-12 01:00:00,38.3,30.7,29.88,NW,315,2.0,-999.0,74,0.00,,,0.00,0,Wunderground v.1.15,2013-01-12 07:00:00,
2013-01-12 01:05:00,38.1,30.9,29.89,WNW,293,1.0,-999.0,75,0.00,,,0.00,0,Wunderground v.1.15,2013-01-12 07:05:00,
2013-01-12 01:10:00,37.9,30.7,29.89,NNW,338,2.0,-999.0,75,0.00,,,0.00,0,Wunderground v.1.15,2013-01-12 07:10:00,
2013-01-12 01:15:00,37.6,30.1,29.90,NW,315,3.0,-999.0,74,0.00,,,0.00,0,Wunderground v.1.15,2013-01-12 07:15:00,
2013-01-12 01:20:00,37.4,29.9,29.89,NNW,338,2.0,-999.0,74,0.00,,,0.00,0,Wunderground v.1.15,2013-01-12 07:20:00,
2013-01-12 01:25:00,37.1,29.6,29.90,NNW,338,2.0,-999.0,74,0.00,,,0.00,0,Wunderground v.1.15,2013-01-12 07:25:00,
2013-01-12 01:30:00,37.0,29.5,29.91,N/A,-737280,0.0,-999.0,74,0.00,,,0.00,0,Wunderground v.1.15,2013-01-12 07:30:00,
2013-01-12 01:35:00,36.7,29.2,29.91,NW,315,2.0,-999.0,74,0.00,,,0.00,0,Wunderground v.1.15,2013-01-12 07:35:00,
2013-01-12 01:40:00,36.4,28.6,29.91,WNW,293,3.0,-999.0,73,0.00,,,0.00,0,Wunderground v.1.15,2013-01-12 07:40:00,
2013-01-12 01:45:00,36.1,28.3,29.92,NW,315,1.0,-999.0,73,0.00,,,0.00,0,Wunderground v.1.15,2013-01-12 07:45:00,
2013-01-12 01:50:00,36.0,28.5,29.92,WNW,293,1.0,-999.0,74,0.00,,,0.00,0,Wunderground v.1.15,2013-01-12 07:50:00,
2013-01-12 01:55:00,35.9,28.4,29.92,WNW,293,1.0,-999.0,74,0.00,,,0.00,0,Wunderground v.1.15,2013-01-12 07:55:00,
2013-01-12 02:00:00,35.7,28.2,29.92,WNW,293,2.0,-999.0,74,0.00,,,0.00,0,Wunderground v.1.15,2013-01-12 08:00:00,
2013-01-12 02:05:00,35.6,27.8,29.93,WNW,293,3.0,-999.0,73,0.00,,,0.00,0,Wunderground v.1.15,2013-01-12 08:05:00,
2013-01-12 02:10:00,35.4,27.6,29.94,NW,315,3.0,-999.0,73,0.00,,,0.00,0,Wunderground v.1.15,2013-01-12 08:10:00,
2013-01-12 02:15:00,35.2,27.4,29.94,WNW,293,2.0,-999.0,73,0.00,,,0.00,0,Wunderground v.1.15,2013-01-12 08:15:00,
2013-01-12 02:20:00,34.8,27.0,29.94,NW,315,5.0,-999.0,73,0.00,,,0.00,0,Wunderground v.1.15,2013-01-12 08:20:00,
2013-01-12 02:25:00,34.4,26.3,29.94,NW,315,3.0,-999.0,72,0.00,,,0.00,0,Wunderground v.1.15,2013-01-12 08:25:00,
2013-01-12 02:30:00,34.3,26.2,29.94,WNW,293,4.0,-999.0,72,0.00,,,0.00,0,Wunderground v.1.15,2013-01-12 08:30:00,
2013-01-12 02:35:00,34.0,25.9,29.95,NW,315,2.0,-999.0,72,0.00,,,0.00,0,Wunderground v.1.15,2013-01-12 08:35:00,
2013-01-12 02:40:00,33.8,25.7,29.96,NW,315,3.0,-999.0,72,0.00,,,0.00,0,Wunderground v.1.15,2013-01-12 08:40:00,
2013-01-12 02:45:00,33.5,25.4,29.96,NW,315,5.0,-999.0,72,0.00,,,0.00,0,Wunderground v.1.15,2013-01-12 08:45:00,
2013-01-12 02:50:00,33.2,24.8,29.96,NW,315,2.0,-999.0,71,0.00,,,0.00,0,Wunderground v.1.15,2013-01-12 08:50:00,
2013-01-12 02:55:00,32.9,24.5,29.96,NW,315,4.0,-999.0,71,0.00,,,0.00,0,Wunderground v.1.15,2013-01-12 08:55:00,
2013-01-12 03:00:00,32.8,24.4,29.97,NW,315,2.0,-999.0,71,0.00,,,0.00,0,Wunderground v.1.15,2013-01-12 09:00:00,
2013-01-12 03:05:00,32.5,24.1,29.98,NW,315,2.0,-999.0,71,0.00,,,0.00,0,Wunderground v.1.15,2013-01-12 09:05:00,
2013-01-12 03:10:00,32.3,23.9,29.98,NW,315,3.0,-999.0,71,0.00,,,0.00,0,Wunderground v.1.15,2013-01-12 09:10:00,
2013-01-12 03:15:00,32.0,23.3,29.97,NW,315,4.0,-999.0,70,0.00,,,0.00,0,Wunderground v.1.15,2013-01-12 09:15:00,
2013-01-12 03:20:00,31.7,23.4,29.97,NW,315,3.0,-999.0,71,0.00,,,0.00,0,Wunderground v.1.15,2013-01-12 09:20:00,
2013-01-12 03:25:00,31.5,23.2,29.98,NW,315,3.0,-999.0,71,0.00,,,0.00,0,Wunderground v.1.15,2013-01-12 09:25:00,
2013-01-12 03:30:00,31.3,23.0,29.97,NW,315,3.0,-999.0,71,0.00,,,0.00,0,Wunderground v.1.15,2013-01-12 09:30:00,
2013-01-12 03:35:00,31.1,22.5,29.97,NNW,338,3.0,-999.0,70,0.00,,,0.00,0,Wunderground v.1.15,2013-01-12 09:35:00,
2013-01-12 03:40:00,30.9,21.9,29.97,NW,315,6.0,-999.0,69,0.00,,,0.00,0,Wunderground v.1.15,2013-01-12 09:40:00,
2013-01-12 03:45:00,30.6,21.3,29.96,NW,315,3.0,-999.0,68,0.00,,,0.00,0,Wunderground v.1.15,2013-01-12 09:45:00,
2013-01-12 03:50:00,30.5,20.8,29.95,NW,315,3.0,-999.0,67,0.00,,,0.00,0,Wunderground v.1.15,2013-01-12 09:50:00,
2013-01-12 03:55:00,30.3,20.6,29.95,NW,315,3.0,-999.0,67,0.00,,,0.00,0,Wunderground v.1.15,2013-01-12 09:55:00,
2013-01-12 04:00:00,30.1,20.5,29.94,NW,315,4.0,-999.0,67,0.00,,,0.00,0,Wunderground v.1.15,2013-01-12 10:00:00,
2013-01-12 04:05:00,29.9,20.6,29.95,NW,315,2.0,-999.0,68,0.00,,,0.00,0,Wunderground v.1.15,2013-01-12 10:05:00,
2013-01-12 04:10:00,29.8,20.9,29.96,NW,315,1.0,-999.0,69,0.00,,,0.00,0,Wunderground v.1.15,2013-01-12 10:10:00,
2013-01-12 04:15:00,29.8,20.9,29.96,NW,315,6.0,-999.0,69,0.00,,,0.00,0,Wunderground v.1.15,2013-01-12 10:15:00,
2013-01-12 04:20:00,29.7,21.1,29.97,NW,315,3.0,-999.0,70,0.00,,,0.00,0,Wunderground v.1.15,2013-01-12 10:20:00,
2013-01-12 04:25:00,29.6,21.3,29.97,NNW,338,1.0,-999.0,71,0.00,,,0.00,0,Wunderground v.1.15,2013-01-12 10:25:00,
2013-01-12 04:30:00,29.6,21.3,29.97,NNW,338,6.0,-999.0,71,0.00,,,0.00,0,Wunderground v.1.15,2013-01-12 10:30:00,
2013-01-12 04:35:00,29.5,21.6,29.97,NNW,338,4.0,-999.0,72,0.00,,,0.00,0,Wunderground v.1.15,2013-01-12 10:35:00,
2013-01-12 04:40:00,29.4,21.5,29.97,NNW,338,0.0,-999.0,72,0.00,,,0.00,0,Wunderground v.1.15,2013-01-12 10:40:00,
2013-01-12 04:45:00,29.3,21.4,29.97,NNW,338,0.0,-999.0,72,0.00,,,0.00,0,Wunderground v.1.15,2013-01-12 10:45:00,
2013-01-12 04:50:00,29.1,21.2,29.97,NNW,338,3.0,-999.0,72,0.00,,,0.00,0,Wunderground v.1.15,2013-01-12 10:50:00,
2013-01-12 04:55:00,28.9,20.3,29.98,WNW,293,3.0,-999.0,70,0.00,,,0.00,0,Wunderground v.1.15,2013-01-12 10:55:00,
2013-01-12 05:00:00,28.8,20.2,29.99,NNW,338,1.0,-999.0,70,0.00,,,0.00,0,Wunderground v.1.15,2013-01-12 11:00:00,
2013-01-12 05:05:00,28.6,19.7,29.99,North,0,2.0,-999.0,69,0.00,,,0.00,0,Wunderground v.1.15,2013-01-12 11:05:00,
2013-01-12 05:10:00,28.4,19.5,30.00,NNW,338,1.0,-999.0,69,0.00,,,0.00,0,Wunderground v.1.15,2013-01-12 11:10:00,
2013-01-12 05:15:00,28.3,19.4,30.00,NNW,338,1.0,-999.0,69,0.00,,,0.00,0,Wunderground v.1.15,2013-01-12 11:15:00,
2013-01-12 05:20:00,28.3,19.4,29.99,NW,315,0.0,-999.0,69,0.00,,,0.00,0,Wunderground v.1.15,2013-01-12 11:20:00,
2013-01-12 05:25:00,28.2,19.3,29.99,North,0,1.0,-999.0,69,0.00,,,0.00,0,Wunderground v.1.15,2013-01-12 11:25:00,
2013-01-12 05:30:00,28.1,19.6,30.00,North,0,0.0,-999.0,70,0.00,,,0.00,0,Wunderground v.1.15,2013-01-12 11:30:00,
2013-01-12 05:35:00,28.1,19.2,30.00,NW,315,0.0,-999.0,69,0.00,,,0.00,0,Wunderground v.1.15,2013-01-12 11:35:00,
2013-01-12 05:40:00,28.0,19.1,30.00,N/A,-737280,0.0,-999.0,69,0.00,,,0.00,0,Wunderground v.1.15,2013-01-12 11:40:00,
2013-01-12 05:45:00,28.0,18.8,30.00,NNW,338,1.0,-999.0,68,0.00,,,0.00,0,Wunderground v.1.15,2013-01-12 11:45:00,
2013-01-12 05:50:00,27.9,18.4,30.00,NNW,338,0.0,-999.0,67,0.00,,,0.00,0,Wunderground v.1.15,2013-01-12 11:50:00,
2013-01-12 05:55:00,27.9,18.0,30.01,NNW,338,0.0,-999.0,66,0.00,,,0.00,0,Wunderground v.1.15,2013-01-12 11:55:00,
2013-01-12 06:00:00,27.9,18.0,30.02,North,0,0.0,-999.0,66,0.00,,,0.00,0,Wunderground v.1.15,2013-01-12 12:00:00,
2013-01-12 06:05:00,27.9,17.6,30.01,NNW,338,1.0,-999.0,65,0.00,,,0.00,0,Wunderground v.1.15,2013-01-12 12:05:00,
2013-01-12 06:10:00,27.9,16.9,30.02,NNW,338,4.0,-999.0,63,0.00,,,0.00,0,Wunderground v.1.15,2013-01-12 12:10:00,
2013-01-12 06:15:00,27.9,16.9,30.02,NNW,338,0.0,-999.0,63,0.00,,,0.00,0,Wunderground v.1.15,2013-01-12 12:15:00,
2013-01-12 06:20:00,27.9,16.6,30.02,North,0,3.0,-999.0,62,0.00,,,0.00,0,Wunderground v.1.15,2013-01-12 12:20:00,
2013-01-12 06:25:00,27.8,16.1,30.03,NNW,338,6.0,-999.0,61,0.00,,,0.00,0,Wunderground v.1.15,2013-01-12 12:25:00,
2013-01-12 06:30:00,27.8,16.5,30.03,NNW,338,1.0,-999.0,62,0.00,,,0.00,0,Wunderground v.1.15,2013-01-12 12:30:00,
2013-01-12 06:35:00,27.7,16.0,30.03,NNW,338,6.0,-999.0,61,0.00,,,0.00,0,Wunderground v.1.15,2013-01-12 12:35:00,
2013-01-12 06:40:00,27.6,15.9,30.04,NNW,338,7.0,-999.0,61,0.00,,,0.00,0,Wunderground v.1.15,2013-01-12 12:40:00,
2013-01-12 06:45:00,27.6,15.9,30.04,NW,315,5.0,-999.0,61,0.00,,,0.00,0,Wunderground v.1.15,2013-01-12 12:45:00,
2013-01-12 06:50:00,27.5,15.4,30.03,NNW,338,5.0,-999.0,60,0.00,,,0.00,0,Wunderground v.1.15,2013-01-12 12:50:00,
2013-01-12 06:55:00,27.4,15.3,30.03,NNW,338,5.0,-999.0,60,0.00,,,0.00,0,Wunderground v.1.15,2013-01-12 12:55:00,
2013-01-12 07:00:00,27.3,15.2,30.03,NNW,338,8.0,-999.0,60,0.00,,,0.00,0,Wunderground v.1.15,2013-01-12 13:00:00,
2013-01-12 07:05:00,27.2,15.1,30.04,NNW,338,8.0,-999.0,60,0.00,,,0.00,0,Wunderground v.1.15,2013-01-12 13:05:00,
2013-01-12 07:10:00,27.1,15.0,30.05,NW,315,9.0,-999.0,60,0.00,,,0.00,0,Wunderground v.1.15,2013-01-12 13:10:00,
2013-01-12 07:15:00,27.1,15.4,30.05,NW,315,5.0,-999.0,61,0.00,,,0.00,0,Wunderground v.1.15,2013-01-12 13:15:00,
2013-01-12 07:20:00,27.1,15.4,30.05,NW,315,4.0,-999.0,61,0.00,,,0.00,0,Wunderground v.1.15,2013-01-12 13:20:00,
2013-01-12 07:25:00,27.0,15.3,30.05,NNW,338,3.0,-999.0,61,0.00,,,0.00,0,Wunderground v.1.15,2013-01-12 13:25:00,
2013-01-12 07:30:00,27.0,15.3,30.06,NNW,338,7.0,-999.0,61,0.00,,,0.00,0,Wunderground v.1.15,2013-01-12 13:30:00,
2013-01-12 07:35:00,27.0,14.9,30.05,NNW,338,7.0,-999.0,60,0.00,,,0.00,0,Wunderground v.1.15,2013-01-12 13:35:00,
2013-01-12 07:40:00,27.0,14.9,30.05,NNW,338,8.0,-999.0,60,0.00,,,0.00,0,Wunderground v.1.15,2013-01-12 13:40:00,
2013-01-12 07:45:00,27.0,15.3,30.06,NNW,338,5.0,-999.0,61,0.00,,,0.00,0,Wunderground v.1.15,2013-01-12 13:45:00,
2013-01-12 07:50:00,27.0,15.3,30.06,NNW,338,2.0,-999.0,61,0.00,,,0.00,0,Wunderground v.1.15,2013-01-12 13:50:00,
2013-01-12 07:55:00,27.0,15.3,30.06,NW,315,3.0,-999.0,61,0.00,,,0.00,5,Wunderground v.1.15,2013-01-12 13:55:00,
2013-01-12 08:00:00,26.9,15.2,30.06,NNW,338,7.0,-999.0,61,0.00,,,0.00,7,Wunderground v.1.15,2013-01-12 14:00:00,
2013-01-12 08:05:00,26.9,15.2,30.07,NW,315,1.0,-999.0,61,0.00,,,0.00,10,Wunderground v.1.15,2013-01-12 14:05:00,
2013-01-12 08:10:00,26.9,14.9,30.08,NNW,338,6.0,-999.0,60,0.00,,,0.00,13,Wunderground v.1.15,2013-01-12 14:10:00,
2013-01-12 08:15:00,26.9,15.2,30.08,NNW,338,6.0,-999.0,61,0.00,,,0.00,17,Wunderground v.1.15,2013-01-12 14:15:00,
2013-01-12 08:20:00,26.9,14.9,30.10,NNW,338,6.0,-999.0,60,0.00,,,0.00,17,Wunderground v.1.15,2013-01-12 14:20:00,
2013-01-12 08:25:00,26.9,14.9,30.09,NNW,338,6.0,-999.0,60,0.00,,,0.00,18,Wunderground v.1.15,2013-01-12 14:25:00,
2013-01-12 08:30:00,27.0,14.9,30.09,NNW,338,3.0,-999.0,60,0.00,,,0.00,23,Wunderground v.1.15,2013-01-12 14:30:00,
2013-01-12 08:35:00,27.0,15.3,30.08,NNW,338,3.0,-999.0,61,0.00,,,0.00,29,Wunderground v.1.15,2013-01-12 14:35:00,
2013-01-12 08:40:00,27.0,14.9,30.08,NNW,338,5.0,-999.0,60,0.00,,,0.00,32,Wunderground v.1.15,2013-01-12 14:40:00,
2013-01-12 08:45:00,27.0,14.6,30.08,NNW,338,8.0,-999.0,59,0.00,,,0.00,33,Wunderground v.1.15,2013-01-12 14:45:00,
2013-01-12 08:50:00,26.9,14.9,30.09,NNW,338,6.0,-999.0,60,0.00,,,0.00,26,Wunderground v.1.15,2013-01-12 14:50:00,
2013-01-12 08:55:00,26.9,14.9,30.10,NNW,338,5.0,-999.0,60,0.00,,,0.00,28,Wunderground v.1.15,2013-01-12 14:55:00,
2013-01-12 09:00:00,26.9,14.9,30.10,NNW,338,6.0,-999.0,60,0.00,,,0.00,32,Wunderground v.1.15,2013-01-12 15:00:00,
2013-01-12 09:05:00,27.0,14.9,30.12,NNW,338,5.0,-999.0,60,0.00,,,0.00,31,Wunderground v.1.15,2013-01-12 15:05:00,
2013-01-12 09:10:00,27.0,14.9,30.12,NNW,338,5.0,-999.0,60,0.00,,,0.00,34,Wunderground v.1.15,2013-01-12 15:10:00,
2013-01-12 09:15:00,27.1,15.0,30.11,NW,315,4.0,-999.0,60,0.00,,,0.00,37,Wunderground v.1.15,2013-01-12 15:15:00,
2013-01-12 09:20:00,27.1,15.0,30.09,NNW,338,6.0,-999.0,60,0.00,,,0.00,45,Wunderground v.1.15,2013-01-12 15:20:00,
2013-01-12 09:25:00,27.1,15.0,30.08,North,0,5.0,-999.0,60,0.00,,,0.00,47,Wunderground v.1.15,2013-01-12 15:25:00,
2013-01-12 09:30:00,27.1,15.0,30.08,NNW,338,6.0,-999.0,60,0.00,,,0.00,46,Wunderground v.1.15,2013-01-12 15:30:00,
2013-01-12 09:35:00,27.1,15.0,30.08,NNW,338,5.0,-999.0,60,0.00,,,0.00,48,Wunderground v.1.15,2013-01-12 15:35:00,
2013-01-12 09:40:00,27.1,15.4,30.08,NW,315,1.0,-999.0,61,0.00,,,0.00,48,Wunderground v.1.15,2013-01-12 15:40:00,
2013-01-12 09:45:00,27.2,15.5,30.08,NNW,338,1.0,-999.0,61,0.00,,,0.00,49,Wunderground v.1.15,2013-01-12 15:45:00,
2013-01-12 09:50:00,27.1,15.4,30.08,North,0,5.0,-999.0,61,0.00,,,0.00,61,Wunderground v.1.15,2013-01-12 15:50:00,
2013-01-12 09:55:00,27.1,15.4,30.08,NNW,338,6.0,-999.0,61,0.00,,,0.00,52,Wunderground v.1.15,2013-01-12 15:55:00,
2013-01-12 10:00:00,27.1,15.4,30.08,NNW,338,6.0,-999.0,61,0.00,,,0.00,53,Wunderground v.1.15,2013-01-12 16:00:00,
2013-01-12 10:05:00,27.0,15.3,30.08,North,0,4.0,-999.0,61,0.00,,,0.00,60,Wunderground v.1.15,2013-01-12 16:05:00,
2013-01-12 10:10:00,27.0,15.3,30.08,NNW,338,7.0,-999.0,61,0.00,,,0.00,66,Wunderground v.1.15,2013-01-12 16:10:00,
2013-01-12 10:15:00,27.0,14.9,30.08,NNW,338,5.0,-999.0,60,0.00,,,0.00,64,Wunderground v.1.15,2013-01-12 16:15:00,
2013-01-12 10:20:00,26.9,14.5,30.08,NNW,338,8.0,-999.0,59,0.00,,,0.00,72,Wunderground v.1.15,2013-01-12 16:20:00,
2013-01-12 10:25:00,26.9,14.5,30.07,NNW,338,9.0,-999.0,59,0.00,,,0.00,83,Wunderground v.1.15,2013-01-12 16:25:00,
2013-01-12 10:30:00,27.0,14.2,30.07,NNW,338,8.0,-999.0,58,0.00,,,0.00,72,Wunderground v.1.15,2013-01-12 16:30:00,
2013-01-12 10:45:00,26.9,14.1,30.08,NNW,338,6.0,-999.0,58,0.00,,,0.00,69,Wunderground v.1.15,2013-01-12 16:45:00,
2013-01-12 10:50:00,26.9,14.1,30.08,NNW,338,6.0,-999.0,58,0.00,,,0.00,65,Wunderground v.1.15,2013-01-12 16:50:00,
2013-01-12 10:55:00,27.0,14.6,30.08,NNW,338,4.0,-999.0,59,0.00,,,0.00,90,Wunderground v.1.15,2013-01-12 16:55:00,
2013-01-12 11:00:00,27.0,14.9,30.08,NNW,338,6.0,-999.0,60,0.00,,,0.00,85,Wunderground v.1.15,2013-01-12 17:00:00,
2013-01-12 11:05:00,27.0,15.3,30.06,NNW,338,7.0,-999.0,61,0.00,,,0.00,105,Wunderground v.1.15,2013-01-12 17:05:00,
2013-01-12 11:10:00,27.0,15.3,30.07,NNW,338,6.0,-999.0,61,0.00,,,0.00,95,Wunderground v.1.15,2013-01-12 17:10:00,
2013-01-12 11:15:00,27.0,15.7,30.06,NNW,338,6.0,-999.0,62,0.00,,,0.00,94,Wunderground v.1.15,2013-01-12 17:15:00,
2013-01-12 11:20:00,27.1,15.8,30.06,NW,315,6.0,-999.0,62,0.00,,,0.00,103,Wunderground v.1.15,2013-01-12 17:20:00,
2013-01-12 11:25:00,27.1,15.8,30.05,NW,315,7.0,-999.0,62,0.00,,,0.00,99,Wunderground v.1.15,2013-01-12 17:25:00,
2013-01-12 11:30:00,27.0,15.3,30.05,NNW,338,9.0,-999.0,61,0.00,,,0.00,93,Wunderground v.1.15,2013-01-12 17:30:00,
2013-01-12 11:35:00,26.9,15.2,30.05,NNW,338,9.0,-999.0,61,0.00,,,0.00,99,Wunderground v.1.15,2013-01-12 17:35:00,
2013-01-12 11:40:00,26.9,14.9,30.05,NNW,338,9.0,-999.0,60,0.00,,,0.00,106,Wunderground v.1.15,2013-01-12 17:40:00,
2013-01-12 11:45:00,26.8,14.4,30.05,NNW,338,9.0,-999.0,59,0.00,,,0.00,99,Wunderground v.1.15,2013-01-12 17:45:00,
2013-01-12 11:50:00,26.7,14.3,30.06,NNW,338,8.0,-999.0,59,0.00,,,0.00,98,Wunderground v.1.15,2013-01-12 17:50:00,
2013-01-12 11:55:00,26.7,14.3,30.05,NNW,338,6.0,-999.0,59,0.00,,,0.00,90,Wunderground v.1.15,2013-01-12 17:55:00,
2013-01-12 12:00:00,26.6,13.8,30.05,NW,315,10.0,-999.0,58,0.00,,,0.00,98,Wunderground v.1.15,2013-01-12 18:00:00,
2013-01-12 12:05:00,26.6,13.8,30.05,NNW,338,7.0,-999.0,58,0.00,,,0.00,101,Wunderground v.1.15,2013-01-12 18:05:00,
2013-01-12 12:10:00,26.7,14.3,30.05,NNW,338,7.0,-999.0,59,0.00,,,0.00,117,Wunderground v.1.15,2013-01-12 18:10:00,
2013-01-12 12:15:00,26.8,14.4,30.05,North,0,7.0,-999.0,59,0.00,,,0.00,126,Wunderground v.1.15,2013-01-12 18:15:00,
2013-01-12 12:20:00,26.9,14.5,30.05,North,0,1.0,-999.0,59,0.00,,,0.00,114,Wunderground v.1.15,2013-01-12 18:20:00,
2013-01-12 12:25:00,27.0,14.6,30.04,NNW,338,5.0,-999.0,59,0.00,,,0.00,106,Wunderground v.1.15,2013-01-12 18:25:00,
2013-01-12 12:30:00,27.2,14.8,30.05,NNW,338,0.0,-999.0,59,0.00,,,0.00,106,Wunderground v.1.15,2013-01-12 18:30:00,
2013-01-12 12:35:00,27.2,14.0,30.04,NNW,338,4.0,-999.0,57,0.00,,,0.00,96,Wunderground v.1.15,2013-01-12 18:35:00,
2013-01-12 12:40:00,27.1,13.5,30.05,North,0,5.0,-999.0,56,0.00,,,0.00,116,Wunderground v.1.15,2013-01-12 18:40:00,
2013-01-12 12:45:00,27.1,13.5,30.05,NNW,338,5.0,-999.0,56,0.00,,,0.00,130,Wunderground v.1.15,2013-01-12 18:45:00,
2013-01-12 12:50:00,27.1,13.5,30.05,NNW,338,6.0,-999.0,56,0.00,,,0.00,114,Wunderground v.1.15,2013-01-12 18:50:00,
2013-01-12 12:55:00,26.9,13.3,30.04,NNW,338,7.0,-999.0,56,0.00,,,0.00,114,Wunderground v.1.15,2013-01-12 18:55:00,
2013-01-12 13:00:00,26.9,13.7,30.03,NW,315,5.0,-999.0,57,0.00,,,0.00,109,Wunderground v.1.15,2013-01-12 19:00:00,
2013-01-12 13:16:00,26.9,14.1,30.02,NNW,338,6.0,6.0,58,0.00,,,0.00,111,Wunderground v.1.15,2013-01-12 19:16:00,
2013-01-12 13:35:00,27.0,13.8,30.04,NNW,345,6.0,6.0,57,0.00,,,0.00,121,Wunderground v.1.15,2013-01-12 19:35:00,
2013-01-12 13:45:00,26.9,13.7,30.03,North,355,9.0,9.0,57,0.00,,,0.00,158,Wunderground v.1.15,2013-01-12 19:45:00,
2013-01-12 13:50:00,27.0,13.8,30.03,NW,310,7.0,10.0,57,0.00,,,0.00,125,Wunderground v.1.15,2013-01-12 19:50:00,
2013-01-12 14:00:00,27.3,14.1,30.04,NW,321,7.0,7.0,57,0.00,,,0.00,135,Wunderground v.1.15,2013-01-12 20:00:00,
2013-01-12 14:05:00,27.4,14.1,30.05,NW,320,7.0,10.0,57,0.00,,,0.00,144,Wunderground v.1.15,2013-01-12 20:05:00,
2013-01-12 14:15:00,27.6,14.3,30.05,North,5,5.0,15.0,57,0.00,,,0.00,116,Wunderground v.1.15,2013-01-12 20:15:00,
2013-01-12 14:20:00,27.6,14.3,30.04,NW,315,4.0,4.0,57,0.00,,,0.00,128,Wunderground v.1.15,2013-01-12 20:20:00,
2013-01-12 14:25:00,27.8,14.5,30.03,North,355,3.0,15.0,57,0.00,,,0.00,148,Wunderground v.1.15,2013-01-12 20:25:00,
2013-01-12 14:35:00,27.7,14.4,30.03,NNW,348,7.0,15.0,57,0.00,,,0.00,146,Wunderground v.1.15,2013-01-12 20:35:00,
2013-01-12 14:45:00,27.8,14.5,30.02,NW,318,5.0,15.0,57,0.00,,,0.00,95,Wunderground v.1.15,2013-01-12 20:45:00,
2013-01-12 14:50:00,27.8,14.5,30.03,NNW,331,6.0,15.0,57,0.00,,,0.00,53,Wunderground v.1.15,2013-01-12 20:50:00,
2013-01-12 14:55:00,27.8,14.9,30.04,NNW,344,6.0,15.0,58,0.00,,,0.00,44,Wunderground v.1.15,2013-01-12 20:55:00,
2013-01-12 15:05:00,27.7,14.4,30.03,NW,326,8.0,15.0,57,0.00,,,0.00,63,Wunderground v.1.15,2013-01-12 21:05:00,
2013-01-12 15:10:00,27.6,14.7,30.03,North,355,9.0,9.0,58,0.00,,,0.00,53,Wunderground v.1.15,2013-01-12 21:10:00,
2013-01-12 15:20:00,27.5,14.6,30.05,NNW,348,7.0,15.0,58,0.00,,,0.00,42,Wunderground v.1.15,2013-01-12 21:20:00,
2013-01-12 15:25:00,27.5,15.0,30.06,NNE,25,9.0,15.0,59,0.00,,,0.00,25,Wunderground v.1.15,2013-01-12 21:25:00,
2013-01-12 15:30:00,27.4,14.9,30.07,NNW,333,8.0,8.0,59,0.00,,,0.00,21,Wunderground v.1.15,2013-01-12 21:30:00,
2013-01-12 15:40:00,27.4,15.7,30.07,NNW,341,7.0,7.0,61,0.00,,,0.00,14,Wunderground v.1.15,2013-01-12 21:40:00,
2013-01-12 15:45:00,27.4,16.1,30.08,NNW,329,4.0,15.0,62,0.00,,,0.00,14,Wunderground v.1.15,2013-01-12 21:45:00,
2013-01-12 15:55:00,27.0,16.8,30.09,NNW,340,5.0,15.0,65,0.00,,,0.00,26,Wunderground v.1.15,2013-01-12 21:55:00,
2013-01-12 16:00:00,26.4,17.6,30.10,NW,319,5.0,5.0,69,0.00,,,0.00,19,Wunderground v.1.15,2013-01-12 22:00:00,
2013-01-12 16:05:00,25.8,18.3,30.10,NW,321,4.0,5.0,73,0.00,,,0.00,37,Wunderground v.1.15,2013-01-12 22:05:00,
2013-01-12 16:15:00,24.9,18.4,30.10,North,350,3.0,3.0,76,0.00,,,0.00,19,Wunderground v.1.15,2013-01-12 22:15:00,
2013-01-12 16:20:00,24.8,18.6,30.08,North,9,3.0,6.0,77,0.00,,,0.00,37,Wunderground v.1.15,2013-01-12 22:20:00,
2013-01-12 16:25:00,24.8,18.6,30.10,NNW,337,4.0,6.0,77,0.00,,,0.00,21,Wunderground v.1.15,2013-01-12 22:25:00,
2013-01-12 16:35:00,25.0,18.5,30.08,NNW,340,4.0,5.0,76,0.00,,,0.00,42,Wunderground v.1.15,2013-01-12 22:35:00,
2013-01-12 16:40:00,25.1,18.6,30.07,NNW,344,4.0,4.0,76,0.00,,,0.00,18,Wunderground v.1.15,2013-01-12 22:40:00,
2013-01-12 16:50:00,25.3,18.5,30.07,NNW,346,3.0,3.0,75,0.00,,,0.00,11,Wunderground v.1.15,2013-01-12 22:50:00,
2013-01-12 16:55:00,25.2,18.4,30.07,North,349,3.0,3.0,75,0.00,,,0.00,16,Wunderground v.1.15,2013-01-12 22:55:00,
2013-01-12 17:00:00,25.2,18.4,30.09,NNW,340,1.0,1.0,75,0.00,,,0.00,9,Wunderground v.1.15,2013-01-12 23:00:00,
2013-01-12 17:10:00,25.1,18.3,30.08,NNW,346,0.0,13.0,75,0.00,,,0.00,16,Wunderground v.1.15,2013-01-12 23:10:00,
2013-01-12 17:15:00,25.2,18.4,30.08,NNW,342,0.0,13.0,75,0.00,,,0.00,14,Wunderground v.1.15,2013-01-12 23:15:00,
2013-01-12 17:25:00,25.6,16.2,30.06,NW,326,7.0,10.0,67,0.00,,,0.00,0,Wunderground v.1.15,2013-01-12 23:25:00,
2013-01-12 17:35:00,25.8,15.6,30.07,NNW,341,2.0,3.0,65,0.00,,,0.00,0,Wunderground v.1.15,2013-01-12 23:35:00,
2013-01-12 17:40:00,25.9,15.7,30.07,NW,323,4.0,5.0,65,0.00,,,0.00,0,Wunderground v.1.15,2013-01-12 23:40:00,
2013-01-12 17:50:00,25.9,15.4,30.10,NW,316,5.0,5.0,64,0.00,,,0.00,0,Wunderground v.1.15,2013-01-12 23:50:00,
2013-01-12 17:55:00,26.0,15.5,30.09,NNW,339,4.0,7.0,64,0.00,,,0.00,0,Wunderground v.1.15,2013-01-12 23:55:00,
2013-01-12 18:00:00,26.0,15.1,30.11,NNW,342,4.0,4.0,63,0.00,,,0.00,0,Wunderground v.1.15,2013-01-13 00:00:00,
2013-01-12 18:05:00,26.0,15.1,30.10,WNW,299,5.0,5.0,63,0.00,,,0.00,0,Wunderground v.1.15,2013-01-13 00:05:00,
2013-01-12 18:10:00,26.0,14.8,30.10,NW,319,5.0,5.0,62,0.00,,,0.00,0,Wunderground v.1.15,2013-01-13 00:10:00,
2013-01-12 18:20:00,25.8,14.6,30.10,NW,325,6.0,6.0,62,0.00,,,0.00,0,Wunderground v.1.15,2013-01-13 00:20:00,
2013-01-12 18:30:00,25.7,14.5,30.09,NNW,332,7.0,7.0,62,0.00,,,0.00,0,Wunderground v.1.15,2013-01-13 00:30:00,
2013-01-12 18:35:00,25.6,14.4,30.11,NNW,331,4.0,7.0,62,0.00,,,0.00,0,Wunderground v.1.15,2013-01-13 00:35:00,
2013-01-12 18:45:00,25.6,14.4,30.10,NNW,328,2.0,14.0,62,0.00,,,0.00,0,Wunderground v.1.15,2013-01-13 00:45:00,
2013-01-12 18:50:00,25.5,13.9,30.09,NNW,336,5.0,14.0,61,0.00,,,0.00,0,Wunderground v.1.15,2013-01-13 00:50:00,
2013-01-12 19:00:00,25.2,13.6,30.09,NNW,340,7.0,14.0,61,0.00,,,0.00,0,Wunderground v.1.15,2013-01-13 01:00:00,
2013-01-12 19:05:00,25.1,13.5,30.09,WNW,302,8.0,14.0,61,0.00,,,0.00,0,Wunderground v.1.15,2013-01-13 01:05:00,
2013-01-12 19:15:00,24.9,13.7,30.12,NNW,327,6.0,14.0,62,0.00,,,0.00,0,Wunderground v.1.15,2013-01-13 01:15:00,
2013-01-12 19:20:00,24.9,13.7,30.13,NNW,339,4.0,14.0,62,0.00,,,0.00,0,Wunderground v.1.15,2013-01-13 01:20:00,
2013-01-12 19:30:00,25.0,13.8,30.09,NNW,340,5.0,5.0,62,0.00,,,0.00,0,Wunderground v.1.15,2013-01-13 01:30:00,
2013-01-12 19:35:00,24.9,13.7,30.10,North,355,6.0,6.0,62,0.00,,,0.00,0,Wunderground v.1.15,2013-01-13 01:35:00,
2013-01-12 19:40:00,24.8,13.6,30.11,North,355,6.0,6.0,62,0.00,,,0.00,0,Wunderground v.1.15,2013-01-13 01:40:00,
2013-01-12 19:50:00,24.8,13.6,30.13,NNW,346,5.0,5.0,62,0.00,,,0.00,0,Wunderground v.1.15,2013-01-13 01:50:00,
2013-01-12 20:00:00,24.9,14.1,30.13,WNW,292,4.0,14.0,63,0.00,,,0.00,0,Wunderground v.1.15,2013-01-13 02:00:00,
2013-01-12 20:05:00,24.9,13.7,30.14,NW,326,5.0,14.0,62,0.00,,,0.00,0,Wunderground v.1.15,2013-01-13 02:05:00,
2013-01-12 20:15:00,24.9,13.3,30.12,NNE,15,7.0,12.0,61,0.00,,,0.00,0,Wunderground v.1.15,2013-01-13 02:15:00,
2013-01-12 20:20:00,24.9,13.3,30.14,North,360,7.0,11.0,61,0.00,,,0.00,0,Wunderground v.1.15,2013-01-13 02:20:00,
2013-01-12 20:30:00,24.9,13.3,30.12,NNW,329,5.0,5.0,61,0.00,,,0.00,0,Wunderground v.1.15,2013-01-13 02:30:00,
2013-01-12 20:35:00,24.9,13.3,30.14,North,355,5.0,5.0,61,0.00,,,0.00,0,Wunderground v.1.15,2013-01-13 02:35:00,
2013-01-12 20:45:00,24.8,13.2,30.14,NW,321,8.0,17.0,61,0.00,,,0.00,0,Wunderground v.1.15,2013-01-13 02:45:00,
2013-01-12 20:50:00,24.7,13.1,30.13,NW,315,7.0,7.0,61,0.00,,,0.00,0,Wunderground v.1.15,2013-01-13 02:50:00,
2013-01-12 21:00:00,24.6,13.4,30.13,NNW,336,5.0,12.0,62,0.00,,,0.00,0,Wunderground v.1.15,2013-01-13 03:00:00,
2013-01-12 21:10:00,24.2,12.7,30.14,NW,313,9.0,9.0,61,0.00,,,0.00,0,Wunderground v.1.15,2013-01-13 03:10:00,
2013-01-12 21:15:00,24.0,12.5,30.13,NNW,336,8.0,13.0,61,0.00,,,0.00,0,Wunderground v.1.15,2013-01-13 03:15:00,
2013-01-12 21:25:00,23.6,12.1,30.12,NW,322,10.0,13.0,61,0.00,,,0.00,0,Wunderground v.1.15,2013-01-13 03:25:00,
2013-01-12 21:30:00,23.4,11.9,30.13,NW,315,9.0,13.0,61,0.00,,,0.00,0,Wunderground v.1.15,2013-01-13 03:30:00,
2013-01-12 21:40:00,23.1,11.6,30.14,NW,325,8.0,13.0,61,0.00,,,0.00,0,Wunderground v.1.15,2013-01-13 03:40:00,
2013-01-12 21:50:00,23.0,11.2,30.15,NNW,331,7.0,13.0,60,0.00,,,0.00,0,Wunderground v.1.15,2013-01-13 03:50:00,
2013-01-12 21:55:00,22.9,11.1,30.15,NW,326,7.0,13.0,60,0.00,,,0.00,0,Wunderground v.1.15,2013-01-13 03:55:00,
2013-01-12 22:05:00,22.7,10.5,30.16,NW,321,9.0,14.0,59,0.00,,,0.00,0,Wunderground v.1.15,2013-01-13 04:05:00,
2013-01-12 22:10:00,22.6,10.8,30.15,NNW,334,8.0,8.0,60,0.00,,,0.00,0,Wunderground v.1.15,2013-01-13 04:10:00,
2013-01-12 22:15:00,22.6,11.2,30.16,NNW,330,6.0,13.0,61,0.00,,,0.00,0,Wunderground v.1.15,2013-01-13 04:15:00,
2013-01-12 22:25:00,22.4,11.0,30.16,NNW,329,7.0,7.0,61,0.00,,,0.00,0,Wunderground v.1.15,2013-01-13 04:25:00,
2013-01-12 22:30:00,22.3,10.9,30.17,NW,323,7.0,7.0,61,0.00,,,0.00,0,Wunderground v.1.15,2013-01-13 04:30:00,
2013-01-12 22:40:00,22.2,10.8,30.17,WNW,303,4.0,13.0,61,0.00,,,0.00,0,Wunderground v.1.15,2013-01-13 04:40:00,
2013-01-12 22:45:00,22.1,10.7,30.17,NNW,336,6.0,13.0,61,0.00,,,0.00,0,Wunderground v.1.15,2013-01-13 04:45:00,
2013-01-12 22:55:00,22.1,10.7,30.18,NNW,327,7.0,7.0,61,0.00,,,0.00,0,Wunderground v.1.15,2013-01-13 04:55:00,
2013-01-12 23:05:00,22.0,10.6,30.18,NNW,331,6.0,11.0,61,0.00,,,0.00,0,Wunderground v.1.15,2013-01-13 05:05:00,
2013-01-12 23:10:00,21.9,10.1,30.18,NNW,343,7.0,7.0,60,0.00,,,0.00,0,Wunderground v.1.15,2013-01-13 05:10:00,
2013-01-12 23:20:00,21.7,9.9,30.19,NNW,338,8.0,8.0,60,0.00,,,0.00,0,Wunderground v.1.15,2013-01-13 05:20:00,
2013-01-12 23:25:00,21.7,9.9,30.19,NNW,342,7.0,9.0,60,0.00,,,0.00,0,Wunderground v.1.15,2013-01-13 05:25:00,
2013-01-12 23:30:00,21.6,10.2,30.19,NW,322,6.0,6.0,61,0.00,,,0.00,0,Wunderground v.1.15,2013-01-13 05:30:00,
2013-01-12 23:40:00,21.5,10.5,30.18,NNW,327,4.0,7.0,62,0.00,,,0.00,0,Wunderground v.1.15,2013-01-13 05:40:00,
2013-01-12 23:45:00,21.4,10.0,30.19,NNW,328,4.0,7.0,61,0.00,,,0.00,0,Wunderground v.1.15,2013-01-13 05:45:00,
2013-01-12 23:55:00,21.1,9.0,30.19,NNW,336,8.0,8.0,59,0.00,,,0.00,0,Wunderground v.1.15,2013-01-13 05:55:00,